| time (UTC) | temp C | wind direction | speed KPH | gust KPH | rain 1hr cm | rain 24hr cm | rain mn cm | humidity % | barometer mb |
| 20260508100735 | 17 | 315 | 9.7 | 12.9 | 0.00 | 0.81 | 0.00 | 75 | 1013.6 |
| 20260508093733 | 17 | 315 | 6.4 | 12.9 | 0.00 | 0.81 | 0.00 | 71 | 1013.4 |
| 20260508090225 | 17 | 338 | 3.2 | 11.3 | 0.00 | 0.81 | 0.00 | 68 | 1013.2 |
| 20260508085736 | 17 | 293 | 6.4 | 12.9 | 0.00 | 0.81 | 0.00 | 70 | 1013.5 |
| 20260508084227 | 16 | 315 | 8.0 | 11.3 | 0.00 | 0.81 | 0.00 | 75 | 1013.3 |
| 20260508075225 | 15 | 315 | 6.4 | 6.4 | 0.00 | 0.81 | 0.00 | 82 | 1013.1 |
| 20260508073737 | 15 | 315 | 3.2 | 6.4 | 0.00 | 0.81 | 0.00 | 82 | 1012.3 |
| 20260508073236 | 15 | 315 | 3.2 | 6.4 | 0.00 | 0.81 | 0.00 | 82 | 1012.4 |
| 20260508071237 | 15 | 293 | 3.2 | 12.9 | 0.00 | 0.81 | 0.00 | 80 | 1012.0 |
| 20260508063224 | 15 | 315 | 3.2 | 9.7 | 0.00 | 0.81 | 0.00 | 87 | 1012.0 |
| 20260508055734 | 13 | 293 | 1.6 | 3.2 | 0.00 | 0.81 | 0.00 | 90 | 1011.6 |
| 20260508045733 | 12 | 293 | 1.6 | 3.2 | 0.00 | 0.81 | 0.00 | 91 | 1011.1 |
| 20260508044734 | 13 | 270 | 1.6 | 6.4 | 0.00 | 0.81 | 0.00 | 91 | 1010.9 |
| 20260508042231 | 13 | 315 | 1.6 | 6.4 | 0.00 | 0.81 | 0.00 | 91 | 1010.7 |
| 20260508021733 | 13 | 270 | 0.0 | 3.2 | 0.00 | 0.81 | 0.00 | 92 | 1011.0 |
| 20260508013229 | 13 | 270 | 1.6 | 6.4 | 0.00 | 0.81 | 0.00 | 92 | 1011.4 |
| 20260508004227 | 13 | 270 | 1.6 | 3.2 | 0.00 | 0.81 | 0.00 | 90 | 1012.1 |
| 20260508000729 | 13 | 293 | 1.6 | 3.2 | 0.00 | 0.81 | 0.00 | 89 | 1012.5 |
| 20260508000236 | 13 | 293 | 1.6 | 6.4 | 0.00 | 0.81 | 0.00 | 89 | 1012.2 |
| 20260507231228 | 16 | 45 | 1.6 | 6.4 | 0.00 | 0.81 | 0.00 | 82 | 1012.5 |
| 20260507224232 | 16 | 45 | 1.6 | 6.4 | 0.00 | 0.81 | 0.00 | 83 | 1012.8 |
| 20260507221234 | 16 | 68 | 6.4 | 11.3 | 0.00 | 0.81 | 0.00 | 83 | 1012.6 |
| 20260507215729 | 16 | 45 | 4.8 | 14.5 | 0.00 | 0.81 | 0.81 | 82 | 1012.6 |
| 20260507214735 | 16 | 68 | 6.4 | 14.5 | 0.00 | 0.81 | 0.81 | 81 | 1012.6 |
| 20260507213735 | 16 | 68 | 8.0 | 14.5 | 0.00 | 0.81 | 0.81 | 82 | 1012.3 |
| 20260507201231 | 16 | 45 | 6.4 | 22.5 | 0.00 | 0.81 | 0.81 | 83 | 1011.8 |
| 20260507195736 | 16 | 23 | 12.9 | 22.5 | 0.00 | 0.81 | 0.81 | 83 | 1011.8 |
| 20260507195229 | 16 | 45 | 8.0 | 25.7 | 0.00 | 0.81 | 0.81 | 83 | 1011.6 |
| 20260507192730 | 16 | 45 | 9.7 | 24.1 | 0.00 | 0.81 | 0.81 | 86 | 1011.4 |
| 20260507192238 | 16 | 45 | 12.9 | 24.1 | 0.00 | 0.81 | 0.81 | 86 | 1011.3 |
| 20260507184231 | 17 | 0 | 6.4 | 12.9 | 0.00 | 0.81 | 0.81 | 82 | 1010.5 |
| 20260507173232 | 17 | 68 | 3.2 | 9.7 | 0.00 | 0.81 | 0.81 | 84 | 1009.9 |
| 20260507172732 | 17 | 68 | 3.2 | 11.3 | 0.00 | 0.81 | 0.81 | 83 | 1010.1 |
| 20260507171734 | 17 | 45 | 3.2 | 11.3 | 0.00 | 0.81 | 0.81 | 83 | 1009.8 |
| 20260507163229 | 18 | 45 | 4.8 | 11.3 | 0.00 | 0.81 | 0.81 | 76 | 1009.9 |
| 20260507153738 | 16 | 45 | 4.8 | 12.9 | 0.03 | 0.81 | 0.81 | 88 | 1009.3 |
| 20260507140236 | 16 | 315 | 3.2 | 12.9 | 0.03 | 0.20 | 0.20 | 85 | 1009.7 |
| 20260507133236 | 17 | 23 | 11.3 | 20.9 | 0.00 | 0.18 | 0.18 | 81 | 1009.6 |
| 20260507131225 | 17 | 23 | 6.4 | 17.7 | 0.00 | 0.18 | 0.18 | 79 | 1009.9 |
| 20260507123238 | 16 | 338 | 8.0 | 11.3 | 0.18 | 0.18 | 0.18 | 88 | 1010.0 |
| 20260507122229 | 16 | 338 | 6.4 | 12.9 | 0.18 | 0.18 | 0.18 | 88 | 1010.2 |
| 20260507113736 | 17 | 23 | 6.4 | 27.4 | 0.00 | 0.00 | 0.00 | 76 | 1010.4 |
| 20260507113229 | 17 | 23 | 9.7 | 27.4 | 0.00 | 0.00 | 0.00 | 76 | 1010.5 |
| 20260507110732 | 18 | 315 | 11.3 | 17.7 | 0.00 | 0.00 | 0.00 | 75 | 1010.4 |
| 20260507104724 | 20 | 90 | 4.8 | 17.7 | 0.00 | 0.00 | 0.00 | 75 | 1010.5 |
| 20260507104226 | 20 | 90 | 12.9 | 17.7 | 0.00 | 0.00 | 0.00 | 76 | 1010.5 |
| 20260507103234 | 19 | 90 | 4.8 | 17.7 | 0.00 | 0.00 | 0.00 | 80 | 1010.7 |